Regional Weather Roundup
Issued by NWS New Orleans/Baton Rouge, LA

Home | Current Version | Previous Version | Text Only | Print | Product List | Glossary Off
Versions: 1 2 3 4 5 6 7 8 9 10 11 12 13 14 15 16 17 18 19 20 21 22 23 24 25 26 27 28 29 30 31 32 33 34 35 36 37 38 39 40 41 42 43 44 45 46 47 48 49 50

081
ASUS44 KLIX 251510
RWRLIX
NEW ORLEANS REGIONAL WEATHER ROUNDUP
NATIONAL WEATHER SERVICE NEW ORLEANS LA
900 AM CST TUE NOV 25 2014

NOTE: "FAIR" INDICATES FEW OR NO CLOUDS BELOW 12,000 FEET WITH NO
      SIGNIFICANT WEATHER AND/OR OBSTRUCTIONS TO VISIBILITY.
      SKY/WX - SKY CONDITION AND SIGNIFICANT WEATHER.
      TMP - AIR TEMPERATURE.     DP    - DEWPOINT TEMPERATURE.
      RH  - RELATIVE HUMIDITY.   PRES  - PRESSURE.
      HI  - HEAT INDEX.          WCI   - WIND CHILL INDEX.

*  THESE STATIONS ARE NOT NWS OR FAA STATIONS AND ARE NOT UNDER
   NWS QUALITY CONTROL.

LAZ038-040-048-061>063-065>067-069-251600-
SOUTHEAST LOUISIANA

CITY           SKY/WX    TMP DP  RH WIND       PRES   REMARKS
N.O. AUDUBON     N/A    N/A N/A N/A MISG        N/A
N.O. INTL ARPT CLOUDY    55  35  47 NE15      30.18R
N.O. LAKEFRONT CLOUDY    55  38  52 N16       30.18R
N.O. DOWNTOWN*   N/A     54  34  47 N6G16     30.18R
SLIDELL        PTSUNNY   53  37  54 N9        30.17R
BATON ROUGE    PTSUNNY   52  31  44 VRB7      30.19S
BOOTHVILLE     CLOUDY    58  40  51 NE18G28   30.13R
BELLE CHASSE   CLOUDY    56  35  45 N7        30.17R
BOGALUSA*        N/A     52  38  57 N7        30.19S
NEW ROADS*       N/A     50  35  55 N3        30.22R
GONZALES*        N/A     52  34  51 MISG      30.19R
HAMMOND*       MOSUNNY   52  34  50 N5        30.20S
HOUMA*         CLOUDY    54  36  50 N12       30.17R
PORT FOURCHON* MOSUNNY   57  39  51 NE20      30.17R

$$

MSZ070-080>082-251600-
SOUTHERN MISSISSIPPI

CITY           SKY/WX    TMP DP  RH WIND       PRES   REMARKS
MCCOMB         SUNNY     52  27  38 N10       30.20R
GULFPORT       PTSUNNY   53  36  52 N10       30.15R
BILOXI         PTSUNNY   56  37  48 NE10      30.15R
PASCAGOULA     PTSUNNY   56  36  47 N9        30.14R
STENNIS ARPT*  SUNNY     52  34  50 N7        30.17R

$$

COASTAL OBSERVATIONS
LAKE AND NEARSHORE STATIONS

STATION/POSITION TIME  TEMP    WIND        PRES    WAVE
                       AIR SEA DIR/SP/G            HT/PER
                 (UTC) (F)     (DEG/KT/KT) (MB)    (FT/S)
PASCAGOULA       1500   55      20/  8/ 15 1020.0
WAVELAND YACHT   1500   52      20/  9/ 12 1020.7
GRAND ISLE       1500   58 63   30/ 17/ 22 1020.9
SOUTHWEST PASS   1500   61                 1019.8
NEW CANAL        1500   54 56   20/ 14/ 16 1022.0
SHELL BEACH      1500   54 53   20/ 16/ 19 1021.4

OFFSHORE STATIONS

STATION/POSITION TIME  TEMP    WIND        PRES    WAVE
                       AIR SEA DIR/SP/G            HT/PER
                 (UTC) (F)     (DEG/KT/KT) (MB)    (FT/S)
64 S DAUPHIN ISL 1450   60 71   30/ 25/ 29 1019.1    8/ 7

$$




USA.gov is the U.S. government's official web portal to all federal, state and local government web resources and services.